This demonstration page uses our WeatherBlox Daily Observations layout. Learn more.

Left ArrowRight Arrow

Hourly Observations for May 28, 2016

Temp ( °F °C ) Dew Point ( °F °C ) Humidity (%) Winds ( mph kmh ) Pressure ( in mb ) Visibility ( mi km ) Precip ( " mm )
12:54 am 00:54 Partly Cloudy 61 16.1 56 13.3 84 84 NE 3 6 29.70 1006 10 16 0.00 0.00
1:54 am 01:54 Clear 59 15 56 13.3 90 90 ESE 3 6 29.69 1005 10 16 0.00 0.00
2:54 am 02:54 Mostly Cloudy 59 15 57 13.9 93 93 WSW 5 7 29.70 1006 10 16 0.00 0.00
3:54 am 03:54 Cloudy 60 15.6 57 13.9 90 90 WSW 7 11 29.72 1006 10 16 0.00 0.00
4:16 am 04:16 Cloudy 61 16 57 14 88 88 W 7 11 29.71 1006 10 16 0.00 0.00
4:39 am 04:39 Partly Cloudy 59 15 55 13 88 88 W 6 9 29.71 1006 10 16 0.00 0.00
4:54 am 04:54 Mostly Clear 58 14.4 56 13.3 93 93 WSW 3 6 29.73 1007 10 16 0.00 0.00
5:54 am 05:54 Partly Cloudy 57 13.9 55 12.8 93 93 Calm 29.73 1007 10 16 0.00 0.00
6:54 am 06:54 Mostly Cloudy 57 13.9 55 12.8 93 93 SSE 5 7 29.74 1007 10 16 0.00 0.00
7:54 am 07:54 Mostly Sunny 60 15.6 56 13.3 86 86 WSW 5 7 29.76 1008 10 16 0.00 0.00
8:54 am 08:54 Cloudy 62 16.7 56 13.3 80 80 W 6 9 29.79 1009 10 16 0.00 0.00
9:54 am 09:54 Mostly Cloudy 65 18.3 57 13.9 76 76 W 8 13 29.79 1009 10 16 0.00 0.00
10:21 am 10:21 Mostly Cloudy 66 18.9 57 13.9 73 73 WNW 10 17 29.77 1008 10 16 0.00 0.00
10:54 am 10:54 Mostly Cloudy 67 19.4 56 13.3 68 68 WSW 13 20 29.79 1009 10 16 0.00 0.00
11:10 am 11:10 Cloudy 66 19 55 13 68 68 WSW 13 20 29.80 1009 10 16 0.00 0.00
11:54 am 11:54 Partly Cloudy 70 21.1 55 12.8 59 59 W 15 24 29.80 1009 10 16 0.00 0.00
12:54 pm 12:54 Mostly Cloudy 72 22.2 55 12.8 55 55 W 18 30 29.80 1009 10 16 0.00 0.00
1:54 pm 13:54 Cloudy 71 21.7 56 13.3 59 59 W 14 22 29.81 1010 10 16 0.00 0.00
2:13 pm 14:13 Cloudy 68 20 55 12.8 63 63 NW 10 17 29.80 1009 10 16 0.00 0.00
2:54 pm 14:54 Mostly Sunny 75 23.9 57 13.9 54 54 WNW 14 22 29.81 1010 10 16 0.00 0.00
3:54 pm 15:54 Mostly Sunny 75 23.9 57 13.9 54 54 W 13 20 29.83 1010 10 16 0.00 0.00
4:54 pm 16:54 Sunny 76 24.4 56 13.3 50 50 W 14 22 29.83 1010 10 16 0.00 0.00
5:54 pm 17:54 Sunny 76 24.4 55 12.8 48 48 W 14 22 29.84 1011 10 16 0.00 0.00
6:54 pm 18:54 Sunny 75 23.9 55 12.8 50 50 W 16 26 29.86 1011 10 16 0.00 0.00
7:54 pm 19:54 Sunny 74 23.3 57 13.9 56 56 W 5 7 29.88 1012 10 16 0.00 0.00
8:54 pm 20:54 Clear 72 22.2 56 13.3 57 57 WNW 5 7 29.91 1013 10 16 0.00 0.00
9:54 pm 21:54 Clear 69 20.6 56 13.3 63 63 NNW 8 13 29.94 1014 10 16 0.00 0.00
10:54 pm 22:54 Clear 64 17.8 57 13.9 78 78 Calm 29.97 1015 10 16 0.00 0.00
11:54 pm 23:54 Clear 60 15.6 57 13.9 90 90 N 5 7 29.98 1015 10 16 0.00 0.00

Powered by AerisWeather